Location: Melizzano
(41.1500°N, 14.5000°E)
Time: 08:45:57
(UTC+00:00)

Cosmos 1709 Rocket - Pass Details

Date: 01 October 2021
Orbit: 948 x 1002 km, 82.9° (Epoch: 27 October)

Event Time Altitude Azimuth Distance (km) Brightness Sun altitude
Rises 02:09:33 0° 4° (N) 3,629 7.4 -31.7°
Reaches altitude 10° 02:12:32 10° 17° (NNE) 2,682 6.8 -31.2°
Maximum altitude 02:17:30 25° 72° (ENE) 1,815 6.0 -30.4°
Drops below altitude 10° 02:22:28 10° 126° (SE) 2,688 6.6 -29.5°
Sets 02:25:26 0° 139° (SE) 3,639 7.2 -29.0°
